Time,TemperatureF,DewpointF,PressureIn,WindDirection,WindDirectionDegrees,WindSpeedMPH,WindSpeedGustMPH,Humidity,HourlyPrecipIn,Conditions,Clouds,dailyrainin,SoftwareType,DateUTC
2013-06-02 00:01:00,25.4,20.0,29.54,North,10,0.0,0.0,84,0.00,,,0.09,TxWx,2013-06-02 05:01:00,
2013-06-02 00:06:00,25.3,20.0,29.54,NNE,17,0.0,0.0,85,0.00,,,0.00,TxWx,2013-06-02 05:06:00,
2013-06-02 00:11:00,25.4,20.0,29.54,North,10,0.0,0.0,84,0.00,,,0.00,TxWx,2013-06-02 05:11:00,
2013-06-02 00:16:00,25.3,20.0,29.54,NNE,16,0.0,0.0,85,0.00,,,0.00,TxWx,2013-06-02 05:16:00,
2013-06-02 00:22:00,25.4,20.0,29.54,North,11,0.0,0.0,85,0.00,,,0.00,TxWx,2013-06-02 05:22:00,
2013-06-02 00:27:00,25.3,20.0,29.54,NNE,13,0.0,0.0,85,0.00,,,0.00,TxWx,2013-06-02 05:27:00,
2013-06-02 00:32:00,25.2,20.0,29.54,NNE,13,0.0,0.0,85,0.00,,,0.00,TxWx,2013-06-02 05:32:00,
2013-06-02 00:37:00,25.3,20.0,29.54,NNE,16,0.0,0.0,85,0.00,,,0.00,TxWx,2013-06-02 05:37:00,
2013-06-02 00:42:00,25.3,20.0,29.54,NNE,13,0.0,0.0,85,0.00,,,0.00,TxWx,2013-06-02 05:42:00,
2013-06-02 00:48:00,25.2,20.0,29.54,NNE,12,0.0,0.0,86,0.00,,,0.00,TxWx,2013-06-02 05:48:00,
2013-06-02 00:53:00,25.1,20.0,29.54,NNE,18,0.0,0.0,86,0.00,,,0.00,TxWx,2013-06-02 05:53:00,
2013-06-02 00:58:00,25.1,20.0,29.54,NNE,16,0.0,0.0,86,0.00,,,0.00,TxWx,2013-06-02 05:58:00,
2013-06-02 01:03:00,25.2,20.0,29.54,NNE,16,0.0,0.0,86,0.00,,,0.00,TxWx,2013-06-02 06:03:00,
2013-06-02 01:08:00,25.4,20.0,29.54,NNE,14,0.0,0.0,86,0.00,,,0.00,TxWx,2013-06-02 06:08:00,
2013-06-02 01:13:00,25.2,20.0,29.54,NNE,16,0.0,0.0,86,0.00,,,0.00,TxWx,2013-06-02 06:13:00,
2013-06-02 01:18:00,25.2,20.0,29.54,NNE,14,0.0,0.0,86,0.00,,,0.00,TxWx,2013-06-02 06:18:00,
2013-06-02 01:23:00,25.1,20.0,29.54,NNE,13,0.0,0.0,86,0.00,,,0.00,TxWx,2013-06-02 06:23:00,
2013-06-02 01:29:00,25.0,20.0,29.54,North,8,0.0,0.0,86,0.00,,,0.00,TxWx,2013-06-02 06:29:00,
2013-06-02 01:34:00,25.1,20.0,29.54,North,9,0.0,0.0,86,0.00,,,0.00,TxWx,2013-06-02 06:34:00,
2013-06-02 01:39:00,25.1,20.0,29.54,NNE,13,0.0,0.0,86,0.00,,,0.00,TxWx,2013-06-02 06:39:00,
2013-06-02 01:44:00,25.1,20.0,29.53,NNE,14,0.0,0.0,86,0.00,,,0.00,TxWx,2013-06-02 06:44:00,
2013-06-02 01:50:00,24.9,20.0,29.54,NNE,13,0.0,0.0,86,0.00,,,0.00,TxWx,2013-06-02 06:50:00,
2013-06-02 01:55:00,24.9,20.0,29.54,North,9,0.0,0.0,86,0.00,,,0.00,TxWx,2013-06-02 06:55:00,
2013-06-02 02:00:00,25.1,20.0,29.54,NNE,13,0.0,0.0,86,0.00,,,0.00,TxWx,2013-06-02 07:00:00,
2013-06-02 02:05:00,25.0,20.0,29.54,NNE,12,0.0,0.0,85,0.00,,,0.00,TxWx,2013-06-02 07:05:00,
2013-06-02 02:10:00,25.0,20.0,29.54,NNE,13,0.0,0.0,85,0.00,,,0.00,TxWx,2013-06-02 07:10:00,
2013-06-02 02:15:00,24.8,20.0,29.54,NNE,12,0.0,0.0,85,0.00,,,0.00,TxWx,2013-06-02 07:15:00,
2013-06-02 02:20:00,24.8,20.0,29.54,NNE,13,0.0,0.0,85,0.00,,,0.00,TxWx,2013-06-02 07:20:00,
2013-06-02 02:25:00,24.8,20.0,29.54,NNE,12,0.0,0.0,85,0.00,,,0.00,TxWx,2013-06-02 07:25:00,
2013-06-02 02:30:00,24.8,20.0,29.54,North,11,0.0,0.0,86,0.00,,,0.00,TxWx,2013-06-02 07:30:00,
2013-06-02 02:36:00,24.5,20.0,29.54,North,11,0.0,0.0,86,0.00,,,0.00,TxWx,2013-06-02 07:36:00,
2013-06-02 02:41:00,24.6,20.0,29.54,North,11,0.0,0.0,86,0.00,,,0.00,TxWx,2013-06-02 07:41:00,
2013-06-02 02:46:00,24.7,20.0,29.54,NNE,13,0.0,0.0,86,0.00,,,0.00,TxWx,2013-06-02 07:46:00,
2013-06-02 02:51:00,24.7,20.0,29.54,North,8,0.0,0.0,86,0.00,,,0.00,TxWx,2013-06-02 07:51:00,
2013-06-02 02:57:00,24.5,20.0,29.54,NW,313,0.0,0.0,86,0.00,,,0.00,TxWx,2013-06-02 07:57:00,
2013-06-02 03:02:00,24.6,20.0,29.54,NNE,12,0.0,0.0,86,0.00,,,0.00,TxWx,2013-06-02 08:02:00,
2013-06-02 03:07:00,24.6,20.0,29.54,North,11,0.0,0.0,86,0.00,,,0.00,TxWx,2013-06-02 08:07:00,
2013-06-02 03:12:00,24.6,20.0,29.55,North,11,0.0,0.0,86,0.00,,,0.00,TxWx,2013-06-02 08:12:00,
2013-06-02 03:17:00,24.6,20.0,29.55,North,11,0.0,0.0,86,0.00,,,0.00,TxWx,2013-06-02 08:17:00,
2013-06-02 03:22:00,24.5,19.0,29.55,North,10,0.0,0.0,86,0.00,,,0.00,TxWx,2013-06-02 08:22:00,
2013-06-02 03:27:00,24.5,19.0,29.55,North,11,0.0,0.0,86,0.00,,,0.00,TxWx,2013-06-02 08:27:00,
2013-06-02 03:32:00,24.7,20.0,29.55,North,10,0.0,0.0,86,0.00,,,0.00,TxWx,2013-06-02 08:32:00,
2013-06-02 03:37:00,24.5,20.0,29.55,North,11,0.0,0.0,86,0.00,,,0.00,TxWx,2013-06-02 08:37:00,
2013-06-02 03:42:00,24.6,20.0,29.55,NNE,13,0.0,0.0,86,0.00,,,0.00,TxWx,2013-06-02 08:42:00,
2013-06-02 03:47:00,24.7,20.0,29.55,North,10,0.0,0.0,86,0.00,,,0.00,TxWx,2013-06-02 08:47:00,
2013-06-02 03:53:00,24.5,20.0,29.56,North,10,0.0,0.0,87,0.00,,,0.00,TxWx,2013-06-02 08:53:00,
2013-06-02 03:58:00,24.6,21.0,29.56,North,9,0.0,0.0,87,0.00,,,0.00,TxWx,2013-06-02 08:58:00,
2013-06-02 04:03:00,24.4,20.0,29.56,North,9,0.0,0.0,87,0.00,,,0.00,TxWx,2013-06-02 09:03:00,
2013-06-02 04:09:00,24.5,20.0,29.56,North,8,0.0,0.0,87,0.00,,,0.00,TxWx,2013-06-02 09:09:00,
2013-06-02 04:14:00,24.6,21.0,29.56,NNE,13,0.0,0.0,87,0.00,,,0.00,TxWx,2013-06-02 09:14:00,
2013-06-02 04:19:00,24.7,21.0,29.56,NNE,15,0.0,0.0,87,0.00,,,0.00,TxWx,2013-06-02 09:19:00,
2013-06-02 04:24:00,24.5,21.0,29.56,North,9,0.0,0.0,87,0.00,,,0.00,TxWx,2013-06-02 09:24:00,
2013-06-02 04:29:00,24.6,20.0,29.57,North,3,0.0,0.0,86,0.00,,,0.00,TxWx,2013-06-02 09:29:00,
2013-06-02 04:34:00,24.7,21.0,29.57,North,9,0.0,0.0,87,0.00,,,0.00,TxWx,2013-06-02 09:34:00,
2013-06-02 04:39:00,24.5,20.0,29.57,North,7,0.0,0.0,86,0.00,,,0.00,TxWx,2013-06-02 09:39:00,
2013-06-02 04:44:00,24.6,20.0,29.57,North,6,0.0,0.0,86,0.00,,,0.00,TxWx,2013-06-02 09:44:00,
2013-06-02 04:49:00,24.5,21.0,29.57,North,5,0.0,0.0,87,0.00,,,0.00,TxWx,2013-06-02 09:49:00,
2013-06-02 04:54:00,24.6,21.0,29.57,North,5,0.0,0.0,87,0.00,,,0.00,TxWx,2013-06-02 09:54:00,
2013-06-02 04:59:00,24.5,21.0,29.58,North,5,0.0,0.0,87,0.00,,,0.00,TxWx,2013-06-02 09:59:00,
2013-06-02 05:04:00,24.4,20.0,29.58,North,3,0.0,0.0,87,0.00,,,0.00,TxWx,2013-06-02 10:04:00,
2013-06-02 05:10:00,24.4,20.0,29.59,North,2,0.0,0.0,87,0.00,,,0.00,TxWx,2013-06-02 10:10:00,
2013-06-02 05:15:00,24.5,20.0,29.59,North,2,0.0,0.0,87,0.00,,,0.00,TxWx,2013-06-02 10:15:00,
2013-06-02 05:20:00,24.4,20.0,29.59,NW,315,0.0,0.0,87,0.00,,,0.00,TxWx,2013-06-02 10:20:00,
2013-06-02 05:25:00,24.5,21.0,29.59,North,2,0.0,0.0,87,0.00,,,0.00,TxWx,2013-06-02 10:25:00,
2013-06-02 05:30:00,24.5,21.0,29.60,North,5,0.0,0.0,87,0.00,,,0.00,TxWx,2013-06-02 10:30:00,
2013-06-02 05:35:00,24.5,20.0,29.60,North,1,0.0,0.0,88,0.00,,,0.00,TxWx,2013-06-02 10:35:00,
2013-06-02 05:40:00,24.3,20.0,29.61,North,4,0.0,0.0,88,0.00,,,0.00,TxWx,2013-06-02 10:40:00,
2013-06-02 05:45:00,24.3,20.0,29.61,North,4,0.0,0.0,88,0.00,,,0.00,TxWx,2013-06-02 10:45:00,
2013-06-02 05:50:00,24.5,20.0,29.61,North,3,0.0,0.0,88,0.00,,,0.00,TxWx,2013-06-02 10:50:00,
2013-06-02 05:55:00,24.5,20.0,29.61,North,5,0.0,0.0,88,0.00,,,0.00,TxWx,2013-06-02 10:55:00,
2013-06-02 06:01:00,24.4,20.0,29.61,North,1,0.0,0.0,88,0.00,,,0.00,TxWx,2013-06-02 11:01:00,
2013-06-02 06:06:00,24.5,20.0,29.61,NW,314,0.0,0.0,87,0.00,,,0.00,TxWx,2013-06-02 11:06:00,
2013-06-02 06:11:00,24.4,20.0,29.62,North,358,0.0,0.0,87,0.00,,,0.00,TxWx,2013-06-02 11:11:00,
2013-06-02 06:16:00,24.7,21.0,29.62,NW,313,0.0,0.0,87,0.00,,,0.00,TxWx,2013-06-02 11:16:00,
2013-06-02 06:22:00,24.5,21.0,29.61,North,358,0.0,0.0,87,0.00,,,0.00,TxWx,2013-06-02 11:22:00,
2013-06-02 06:27:00,24.6,21.0,29.62,North,358,0.0,0.0,87,0.00,,,0.00,TxWx,2013-06-02 11:27:00,
2013-06-02 06:32:00,24.7,21.0,29.62,North,356,0.0,0.0,87,0.00,,,0.00,TxWx,2013-06-02 11:32:00,
2013-06-02 06:37:00,24.6,21.0,29.61,North,355,0.0,0.0,87,0.00,,,0.00,TxWx,2013-06-02 11:37:00,
2013-06-02 06:42:00,24.4,19.0,29.62,NW,315,0.0,0.0,86,0.00,,,0.00,TxWx,2013-06-02 11:42:00,
2013-06-02 06:48:00,24.6,20.0,29.62,NW,313,0.0,0.0,86,0.00,,,0.00,TxWx,2013-06-02 11:48:00,
2013-06-02 06:53:00,24.6,20.0,29.62,NW,319,0.0,0.0,86,0.00,,,0.00,TxWx,2013-06-02 11:53:00,
2013-06-02 06:58:00,24.6,20.0,29.62,East,90,0.0,0.0,86,0.00,,,0.00,TxWx,2013-06-02 11:58:00,
2013-06-02 07:03:00,24.4,19.0,29.62,NW,317,0.0,0.0,85,0.00,,,0.00,TxWx,2013-06-02 12:03:00,
2013-06-02 07:08:00,24.6,20.0,29.62,North,354,0.0,0.0,85,0.00,,,0.00,TxWx,2013-06-02 12:08:00,
2013-06-02 07:13:00,24.7,20.0,29.62,NW,321,0.0,0.0,84,0.00,,,0.00,TxWx,2013-06-02 12:13:00,
2013-06-02 07:18:00,24.9,20.0,29.62,ENE,74,0.0,0.0,84,0.00,,,0.00,TxWx,2013-06-02 12:18:00,
2013-06-02 07:24:00,24.7,20.0,29.62,NNW,327,0.0,0.0,84,0.00,,,0.00,TxWx,2013-06-02 12:24:00,
2013-06-02 07:29:00,24.8,20.0,29.62,NW,316,0.0,0.0,83,0.00,,,0.00,TxWx,2013-06-02 12:29:00,
2013-06-02 07:34:00,24.9,19.0,29.62,North,354,0.0,0.0,83,0.00,,,0.00,TxWx,2013-06-02 12:34:00,
2013-06-02 07:39:00,23.7,17.0,29.64,NW,325,0.0,0.0,79,0.00,,,0.00,TxWx,2013-06-02 12:39:00,
2013-06-02 07:44:00,22.7,17.0,29.65,NNW,335,0.0,0.0,81,0.00,,,0.00,TxWx,2013-06-02 12:44:00,
2013-06-02 07:49:00,21.6,16.0,29.66,NNW,336,0.0,0.0,82,0.00,,,0.00,TxWx,2013-06-02 12:49:00,
2013-06-02 07:54:00,20.9,15.0,29.66,NNW,336,0.0,0.0,82,0.00,,,0.00,TxWx,2013-06-02 12:54:00,
2013-06-02 07:59:00,20.4,15.0,29.66,NNW,332,0.0,0.0,83,0.00,,,0.00,TxWx,2013-06-02 12:59:00,
2013-06-02 08:04:00,19.9,15.0,29.67,NNW,334,0.0,0.0,84,0.00,,,0.00,TxWx,2013-06-02 13:04:00,
2013-06-02 08:09:00,19.8,15.0,29.67,NW,325,0.0,0.0,85,0.00,,,0.00,TxWx,2013-06-02 13:09:00,
2013-06-02 08:15:00,19.8,15.0,29.67,NNW,341,0.0,0.0,86,0.00,,,0.00,TxWx,2013-06-02 13:15:00,
2013-06-02 08:20:00,19.8,15.0,29.67,NNW,334,0.0,0.0,85,0.00,,,0.00,TxWx,2013-06-02 13:20:00,
2013-06-02 08:25:00,19.8,15.0,29.67,NNW,327,0.0,0.0,85,0.00,,,0.00,TxWx,2013-06-02 13:25:00,
2013-06-02 08:30:00,19.7,15.0,29.67,NW,324,0.0,0.0,85,0.00,,,0.00,TxWx,2013-06-02 13:30:00,
2013-06-02 08:36:00,19.8,15.0,29.67,NNW,336,0.0,0.0,85,0.00,,,0.00,TxWx,2013-06-02 13:36:00,
2013-06-02 08:41:00,19.8,15.0,29.68,NNW,328,0.0,0.0,85,0.00,,,0.00,TxWx,2013-06-02 13:41:00,
2013-06-02 08:46:00,19.8,15.0,29.68,NW,326,0.0,0.0,84,0.00,,,0.00,TxWx,2013-06-02 13:46:00,
2013-06-02 08:51:00,19.9,15.0,29.68,NNW,340,0.0,0.0,84,0.00,,,0.00,TxWx,2013-06-02 13:51:00,
2013-06-02 08:57:00,20.0,15.0,29.68,NNW,339,0.0,0.0,84,0.00,,,0.00,TxWx,2013-06-02 13:57:00,
2013-06-02 09:02:00,19.9,15.0,29.68,NNW,328,0.0,0.0,83,0.00,,,0.00,TxWx,2013-06-02 14:02:00,
2013-06-02 09:07:00,19.9,15.0,29.68,NNW,329,0.0,0.0,83,0.00,,,0.00,TxWx,2013-06-02 14:07:00,
2013-06-02 09:12:00,19.8,15.0,29.68,NW,320,0.0,0.0,83,0.00,,,0.00,TxWx,2013-06-02 14:12:00,
2013-06-02 09:17:00,20.0,15.0,29.69,NNW,336,0.0,0.0,83,0.00,,,0.00,TxWx,2013-06-02 14:17:00,
2013-06-02 09:22:00,19.6,15.0,29.69,NNW,335,0.0,0.0,83,0.00,,,0.00,TxWx,2013-06-02 14:22:00,
2013-06-02 09:28:00,19.5,15.0,29.69,NNW,335,0.0,0.0,84,0.00,,,0.00,TxWx,2013-06-02 14:28:00,
2013-06-02 09:33:00,19.5,15.0,29.69,NW,325,0.0,0.0,85,0.00,,,0.00,TxWx,2013-06-02 14:33:00,
2013-06-02 09:38:00,19.4,14.0,29.69,NNW,333,0.0,0.0,85,0.00,,,0.00,TxWx,2013-06-02 14:38:00,
2013-06-02 09:43:00,19.5,15.0,29.69,NNW,334,0.0,0.0,85,0.00,,,0.00,TxWx,2013-06-02 14:43:00,
2013-06-02 09:48:00,19.5,14.0,29.70,NNW,336,0.0,0.0,85,0.00,,,0.00,TxWx,2013-06-02 14:48:00,
2013-06-02 09:54:00,19.6,15.0,29.70,NNW,338,0.0,0.0,84,0.00,,,0.00,TxWx,2013-06-02 14:54:00,
2013-06-02 09:59:00,19.4,14.0,29.70,NNW,329,0.0,0.0,84,0.00,,,0.00,TxWx,2013-06-02 14:59:00,
2013-06-02 10:04:00,19.6,15.0,29.71,NNW,328,0.0,0.0,83,0.00,,,0.00,TxWx,2013-06-02 15:04:00,
2013-06-02 10:09:00,19.4,14.0,29.71,NNW,337,0.0,0.0,84,0.00,,,0.00,TxWx,2013-06-02 15:09:00,
2013-06-02 10:14:00,19.4,14.0,29.71,NW,323,0.0,0.0,84,0.00,,,0.00,TxWx,2013-06-02 15:14:00,
2013-06-02 10:19:00,19.6,15.0,29.72,NW,316,0.0,0.0,84,0.00,,,0.00,TxWx,2013-06-02 15:19:00,
2013-06-02 10:24:00,19.3,14.0,29.72,NNW,336,0.0,0.0,84,0.00,,,0.00,TxWx,2013-06-02 15:24:00,
2013-06-02 10:30:00,19.2,14.0,29.72,NNW,339,0.0,0.0,84,0.00,,,0.00,TxWx,2013-06-02 15:30:00,
2013-06-02 10:35:00,19.3,14.0,29.72,NNW,340,0.0,0.0,84,0.00,,,0.00,TxWx,2013-06-02 15:35:00,
2013-06-02 10:41:00,19.4,14.0,29.73,NNW,334,0.0,0.0,83,0.00,,,0.00,TxWx,2013-06-02 15:41:00,
2013-06-02 10:46:00,19.4,14.0,29.73,NNW,327,0.0,0.0,83,0.00,,,0.00,TxWx,2013-06-02 15:46:00,
2013-06-02 10:51:00,19.2,14.0,29.73,NNW,335,0.0,0.0,83,0.00,,,0.00,TxWx,2013-06-02 15:51:00,
2013-06-02 10:56:00,19.2,13.0,29.73,NNW,339,0.0,0.0,82,0.00,,,0.00,TxWx,2013-06-02 15:56:00,
2013-06-02 11:01:00,19.1,14.0,29.74,NW,325,0.0,0.0,83,0.00,,,0.00,TxWx,2013-06-02 16:01:00,
2013-06-02 11:06:00,19.2,13.0,29.74,NNW,335,0.0,0.0,81,0.00,,,0.00,TxWx,2013-06-02 16:06:00,
2013-06-02 11:12:00,19.2,13.0,29.74,NNW,327,0.0,0.0,81,0.00,,,0.00,TxWx,2013-06-02 16:12:00,
2013-06-02 11:17:00,19.6,14.0,29.75,NNW,337,0.0,0.0,81,0.00,,,0.00,TxWx,2013-06-02 16:17:00,
2013-06-02 11:22:00,19.5,12.0,29.75,NNW,334,0.0,0.0,78,0.00,,,0.00,TxWx,2013-06-02 16:22:00,
2013-06-02 11:27:00,19.4,12.0,29.75,NNW,328,0.0,0.0,77,0.00,,,0.00,TxWx,2013-06-02 16:27:00,
2013-06-02 11:32:00,19.5,13.0,29.74,NNW,338,0.0,0.0,76,0.00,,,0.00,TxWx,2013-06-02 16:32:00,
2013-06-02 11:37:00,19.4,12.0,29.74,NW,323,0.0,0.0,77,0.00,,,0.00,TxWx,2013-06-02 16:37:00,
2013-06-02 11:42:00,19.6,13.0,29.75,NNW,334,0.0,0.0,77,0.00,,,0.00,TxWx,2013-06-02 16:42:00,
2013-06-02 11:47:00,19.6,13.0,29.75,NNW,335,0.0,0.0,76,0.00,,,0.00,TxWx,2013-06-02 16:47:00,
2013-06-02 11:53:00,19.7,12.0,29.75,NNW,332,0.0,0.0,74,0.00,,,0.00,TxWx,2013-06-02 16:53:00,
2013-06-02 11:58:00,19.8,12.0,29.75,NNW,329,0.0,0.0,74,0.00,,,0.00,TxWx,2013-06-02 16:58:00,
2013-06-02 12:03:00,19.4,11.0,29.75,NNW,331,0.0,0.0,74,0.00,,,0.00,TxWx,2013-06-02 17:03:00,
2013-06-02 12:08:00,19.6,12.0,29.75,NNW,332,0.0,0.0,74,0.00,,,0.00,TxWx,2013-06-02 17:08:00,
2013-06-02 12:13:00,19.8,12.0,29.75,NNW,339,0.0,0.0,74,0.00,,,0.00,TxWx,2013-06-02 17:13:00,
2013-06-02 12:19:00,19.7,12.0,29.76,NNW,342,0.0,0.0,74,0.00,,,0.00,TxWx,2013-06-02 17:19:00,
2013-06-02 12:24:00,19.7,12.0,29.75,NW,326,0.0,0.0,74,0.00,,,0.00,TxWx,2013-06-02 17:24:00,
2013-06-02 12:29:00,19.8,11.0,29.76,NNW,329,0.0,0.0,71,0.00,,,0.00,TxWx,2013-06-02 17:29:00,
2013-06-02 12:34:00,19.7,11.0,29.76,NNW,337,0.0,0.0,72,0.00,,,0.00,TxWx,2013-06-02 17:34:00,
2013-06-02 12:40:00,19.8,11.0,29.76,NNW,335,0.0,0.0,72,0.00,,,0.00,TxWx,2013-06-02 17:40:00,
2013-06-02 12:45:00,19.8,11.0,29.76,NNW,330,0.0,0.0,72,0.00,,,0.00,TxWx,2013-06-02 17:45:00,
2013-06-02 12:50:00,19.9,11.0,29.76,NW,324,0.0,0.0,71,0.00,,,0.00,TxWx,2013-06-02 17:50:00,
2013-06-02 12:55:00,19.6,11.0,29.75,NNW,340,0.0,0.0,70,0.00,,,0.00,TxWx,2013-06-02 17:55:00,
2013-06-02 13:00:00,20.0,11.0,29.75,NNW,332,0.0,0.0,72,0.00,,,0.00,TxWx,2013-06-02 18:00:00,
2013-06-02 13:06:00,20.4,11.0,29.76,NNW,327,0.0,0.0,70,0.00,,,0.00,TxWx,2013-06-02 18:06:00,
2013-06-02 13:11:00,19.8,10.0,29.76,NNW,339,0.0,0.0,69,0.00,,,0.00,TxWx,2013-06-02 18:11:00,
2013-06-02 13:16:00,20.3,11.0,29.75,NNW,339,0.0,0.0,70,0.00,,,0.00,TxWx,2013-06-02 18:16:00,
2013-06-02 13:21:00,20.1,10.0,29.76,NNW,339,0.0,0.0,69,0.00,,,0.00,TxWx,2013-06-02 18:21:00,
2013-06-02 13:26:00,20.0,10.0,29.76,NW,326,0.0,0.0,68,0.00,,,0.00,TxWx,2013-06-02 18:26:00,
2013-06-02 13:31:00,20.1,10.0,29.76,NNW,333,0.0,0.0,69,0.00,,,0.00,TxWx,2013-06-02 18:31:00,
2013-06-02 13:36:00,20.0,10.0,29.77,NW,323,0.0,0.0,69,0.00,,,0.00,TxWx,2013-06-02 18:36:00,
2013-06-02 13:42:00,20.2,10.0,29.77,NNW,335,0.0,0.0,69,0.00,,,0.00,TxWx,2013-06-02 18:42:00,
2013-06-02 13:47:00,20.3,10.0,29.77,NNW,329,0.0,0.0,69,0.00,,,0.00,TxWx,2013-06-02 18:47:00,
2013-06-02 13:52:00,20.3,9.0,29.77,NNW,331,0.0,0.0,66,0.00,,,0.00,TxWx,2013-06-02 18:52:00,
2013-06-02 13:57:00,20.1,10.0,29.78,NNW,327,0.0,0.0,67,0.00,,,0.00,TxWx,2013-06-02 18:57:00,
2013-06-02 14:02:00,19.8,9.0,29.78,NW,317,0.0,0.0,66,0.00,,,0.00,TxWx,2013-06-02 19:02:00,
2013-06-02 14:07:00,19.8,10.0,29.78,NNW,332,0.0,0.0,68,0.00,,,0.00,TxWx,2013-06-02 19:07:00,
2013-06-02 14:13:00,20.0,9.0,29.78,NNW,330,0.0,0.0,66,0.00,,,0.00,TxWx,2013-06-02 19:13:00,
2013-06-02 14:18:00,20.2,9.0,29.78,NNW,329,0.0,0.0,66,0.00,,,0.00,TxWx,2013-06-02 19:18:00,
2013-06-02 14:23:00,20.1,8.0,29.78,NNW,336,0.0,0.0,63,0.00,,,0.00,TxWx,2013-06-02 19:23:00,
2013-06-02 14:28:00,20.1,8.0,29.78,NNW,327,0.0,0.0,62,0.00,,,0.00,TxWx,2013-06-02 19:28:00,
2013-06-02 14:34:00,20.0,9.0,29.78,NNW,331,0.0,0.0,64,0.00,,,0.00,TxWx,2013-06-02 19:34:00,
2013-06-02 14:39:00,19.9,9.0,29.78,NNW,336,0.0,0.0,64,0.00,,,0.00,TxWx,2013-06-02 19:39:00,
2013-06-02 14:44:00,19.8,9.0,29.79,NNW,328,0.0,0.0,66,0.00,,,0.00,TxWx,2013-06-02 19:44:00,
2013-06-02 14:49:00,20.2,9.0,29.79,NW,326,0.0,0.0,66,0.00,,,0.00,TxWx,2013-06-02 19:49:00,
2013-06-02 14:54:00,20.3,9.0,29.79,NNW,330,0.0,0.0,65,0.00,,,0.00,TxWx,2013-06-02 19:54:00,
2013-06-02 14:59:00,20.0,9.0,29.79,NNW,335,0.0,0.0,64,0.00,,,0.00,TxWx,2013-06-02 19:59:00,
2013-06-02 15:04:00,20.0,8.0,29.79,NNW,328,0.0,0.0,63,0.00,,,0.00,TxWx,2013-06-02 20:04:00,
2013-06-02 15:10:00,20.1,9.0,29.79,NNW,340,0.0,0.0,65,0.00,,,0.00,TxWx,2013-06-02 20:10:00,
2013-06-02 15:15:00,20.1,9.0,29.79,NNW,335,0.0,0.0,64,0.00,,,0.00,TxWx,2013-06-02 20:15:00,
2013-06-02 15:20:00,19.9,9.0,29.79,NNW,348,0.0,0.0,65,0.00,,,0.00,TxWx,2013-06-02 20:20:00,
2013-06-02 15:25:00,20.0,9.0,29.79,NNW,341,0.0,0.0,65,0.00,,,0.00,TxWx,2013-06-02 20:25:00,
2013-06-02 15:30:00,19.8,9.0,29.79,NNW,337,0.0,0.0,65,0.00,,,0.00,TxWx,2013-06-02 20:30:00,
2013-06-02 15:36:00,19.8,9.0,29.79,NNW,344,0.0,0.0,65,0.00,,,0.00,TxWx,2013-06-02 20:36:00,
2013-06-02 15:41:00,19.4,8.0,29.80,NNW,341,0.0,0.0,66,0.00,,,0.00,TxWx,2013-06-02 20:41:00,
2013-06-02 15:46:00,19.8,10.0,29.80,NNW,341,0.0,0.0,67,0.00,,,0.00,TxWx,2013-06-02 20:46:00,
2013-06-02 15:51:00,19.7,9.0,29.80,NNW,335,0.0,0.0,66,0.00,,,0.00,TxWx,2013-06-02 20:51:00,
2013-06-02 15:56:00,19.7,10.0,29.80,NNW,338,0.0,0.0,67,0.00,,,0.00,TxWx,2013-06-02 20:56:00,
2013-06-02 16:02:00,19.3,9.0,29.80,NNW,330,0.0,0.0,68,0.00,,,0.00,TxWx,2013-06-02 21:02:00,
2013-06-02 16:07:00,19.4,9.0,29.80,NNW,336,0.0,0.0,68,0.00,,,0.00,TxWx,2013-06-02 21:07:00,
2013-06-02 16:12:00,19.2,9.0,29.80,NNW,339,0.0,0.0,69,0.00,,,0.00,TxWx,2013-06-02 21:12:00,
2013-06-02 16:17:00,19.2,9.0,29.80,NNW,338,0.0,0.0,68,0.00,,,0.00,TxWx,2013-06-02 21:17:00,
2013-06-02 16:22:00,19.3,9.0,29.80,NW,321,0.0,0.0,68,0.00,,,0.00,TxWx,2013-06-02 21:22:00,
2013-06-02 16:27:00,19.2,9.0,29.80,NNW,333,0.0,0.0,67,0.00,,,0.00,TxWx,2013-06-02 21:27:00,
2013-06-02 16:33:00,19.3,9.0,29.80,NNW,329,0.0,0.0,68,0.00,,,0.00,TxWx,2013-06-02 21:33:00,
2013-06-02 16:38:00,19.3,9.0,29.80,NNW,329,0.0,0.0,66,0.00,,,0.00,TxWx,2013-06-02 21:38:00,
2013-06-02 16:43:00,19.3,9.0,29.80,NNW,337,0.0,0.0,66,0.00,,,0.00,TxWx,2013-06-02 21:43:00,
2013-06-02 16:48:00,19.4,9.0,29.80,NNW,334,0.0,0.0,68,0.00,,,0.00,TxWx,2013-06-02 21:48:00,
2013-06-02 16:53:00,19.6,10.0,29.79,NNW,328,0.0,0.0,67,0.00,,,0.00,TxWx,2013-06-02 21:53:00,
2013-06-02 16:59:00,19.6,9.0,29.79,NNW,329,0.0,0.0,66,0.00,,,0.00,TxWx,2013-06-02 21:59:00,
2013-06-02 17:04:00,19.6,10.0,29.79,NNW,328,0.0,0.0,67,0.00,,,0.00,TxWx,2013-06-02 22:04:00,
2013-06-02 17:09:00,19.5,9.0,29.79,NW,326,0.0,0.0,66,0.00,,,0.00,TxWx,2013-06-02 22:09:00,
2013-06-02 17:14:00,19.5,9.0,29.79,NNW,332,0.0,0.0,67,0.00,,,0.00,TxWx,2013-06-02 22:14:00,
2013-06-02 17:19:00,19.5,9.0,29.79,NNW,332,0.0,0.0,68,0.00,,,0.00,TxWx,2013-06-02 22:19:00,
2013-06-02 17:24:00,19.6,10.0,29.79,NW,320,0.0,0.0,68,0.00,,,0.00,TxWx,2013-06-02 22:24:00,
2013-06-02 17:29:00,19.4,9.0,29.80,NNW,335,0.0,0.0,67,0.00,,,0.00,TxWx,2013-06-02 22:29:00,
2013-06-02 17:35:00,19.5,10.0,29.80,NNW,333,0.0,0.0,67,0.00,,,0.00,TxWx,2013-06-02 22:35:00,
2013-06-02 17:40:00,19.4,9.0,29.79,NNW,330,0.0,0.0,67,0.00,,,0.00,TxWx,2013-06-02 22:40:00,
2013-06-02 17:45:00,19.4,9.0,29.79,NNW,330,0.0,0.0,67,0.00,,,0.00,TxWx,2013-06-02 22:45:00,
2013-06-02 17:50:00,19.3,9.0,29.80,NNW,340,0.0,0.0,68,0.00,,,0.00,TxWx,2013-06-02 22:50:00,
2013-06-02 17:55:00,19.3,9.0,29.80,NNW,333,0.0,0.0,67,0.00,,,0.00,TxWx,2013-06-02 22:55:00,
2013-06-02 18:01:00,19.2,9.0,29.80,NNW,331,0.0,0.0,68,0.00,,,0.00,TxWx,2013-06-02 23:01:00,
2013-06-02 18:06:00,19.3,9.0,29.80,NNW,332,0.0,0.0,67,0.00,,,0.00,TxWx,2013-06-02 23:06:00,
2013-06-02 18:11:00,19.0,9.0,29.80,NNW,339,0.0,0.0,66,0.00,,,0.00,TxWx,2013-06-02 23:11:00,
2013-06-02 18:16:00,19.2,9.0,29.80,NNW,328,0.0,0.0,67,0.00,,,0.00,TxWx,2013-06-02 23:16:00,
2013-06-02 18:21:00,19.3,9.0,29.80,NW,321,0.0,0.0,66,0.00,,,0.00,TxWx,2013-06-02 23:21:00,
2013-06-02 18:26:00,19.3,9.0,29.80,NW,322,0.0,0.0,67,0.00,,,0.00,TxWx,2013-06-02 23:26:00,
2013-06-02 18:31:00,19.0,9.0,29.81,NW,317,0.0,0.0,66,0.00,,,0.00,TxWx,2013-06-02 23:31:00,
2013-06-02 18:36:00,19.1,9.0,29.81,NNW,330,0.0,0.0,66,0.00,,,0.00,TxWx,2013-06-02 23:36:00,
2013-06-02 18:42:00,19.0,9.0,29.81,NNW,331,0.0,0.0,68,0.00,,,0.00,TxWx,2013-06-02 23:42:00,
2013-06-02 18:47:00,19.1,9.0,29.81,NW,322,0.0,0.0,67,0.00,,,0.00,TxWx,2013-06-02 23:47:00,
2013-06-02 18:52:00,19.1,9.0,29.81,NNW,333,0.0,0.0,68,0.00,,,0.00,TxWx,2013-06-02 23:52:00,
2013-06-02 18:57:00,19.3,9.0,29.81,NW,322,0.0,0.0,68,0.00,,,0.00,TxWx,2013-06-02 23:57:00,
2013-06-02 19:02:00,19.1,9.0,29.81,NW,324,0.0,0.0,68,0.00,,,0.00,TxWx,2013-06-03 00:02:00,
2013-06-02 19:08:00,19.1,9.0,29.81,NNW,335,0.0,0.0,68,0.00,,,0.00,TxWx,2013-06-03 00:08:00,
2013-06-02 19:13:00,19.2,9.0,29.81,NNW,328,0.0,0.0,68,0.00,,,0.00,TxWx,2013-06-03 00:13:00,
2013-06-02 19:18:00,19.2,9.0,29.81,NNW,331,0.0,0.0,69,0.00,,,0.00,TxWx,2013-06-03 00:18:00,
2013-06-02 19:23:00,19.2,10.0,29.81,NNW,339,0.0,0.0,69,0.00,,,0.00,TxWx,2013-06-03 00:23:00,
2013-06-02 19:28:00,19.3,9.0,29.81,NW,322,0.0,0.0,69,0.00,,,0.00,TxWx,2013-06-03 00:28:00,
2013-06-02 19:33:00,19.3,10.0,29.81,NNW,336,0.0,0.0,69,0.00,,,0.00,TxWx,2013-06-03 00:33:00,
2013-06-02 19:39:00,19.4,9.0,29.81,NNW,332,0.0,0.0,68,0.00,,,0.00,TxWx,2013-06-03 00:39:00,
2013-06-02 19:44:00,19.5,10.0,29.81,NW,325,0.0,0.0,68,0.00,,,0.00,TxWx,2013-06-03 00:44:00,
2013-06-02 19:49:00,19.2,9.0,29.81,NNW,333,0.0,0.0,68,0.00,,,0.00,TxWx,2013-06-03 00:49:00,
2013-06-02 19:54:00,19.1,9.0,29.81,NNW,330,0.0,0.0,69,0.00,,,0.00,TxWx,2013-06-03 00:54:00,
2013-06-02 19:59:00,19.2,10.0,29.81,NNW,341,0.0,0.0,69,0.00,,,0.00,TxWx,2013-06-03 00:59:00,
2013-06-02 20:04:00,18.9,10.0,29.81,NNW,329,0.0,0.0,69,0.00,,,0.00,TxWx,2013-06-03 01:04:00,
2013-06-02 20:09:00,18.9,10.0,29.81,NNW,333,0.0,0.0,69,0.00,,,0.00,TxWx,2013-06-03 01:09:00,
2013-06-02 20:14:00,18.9,10.0,29.81,NNW,335,0.0,0.0,70,0.00,,,0.00,TxWx,2013-06-03 01:14:00,
2013-06-02 20:20:00,19.0,10.0,29.81,NNW,329,0.0,0.0,70,0.00,,,0.00,TxWx,2013-06-03 01:20:00,
2013-06-02 20:25:00,18.8,10.0,29.81,NNW,330,0.0,0.0,70,0.00,,,0.00,TxWx,2013-06-03 01:25:00,
2013-06-02 20:30:00,18.9,10.0,29.81,NNW,333,0.0,0.0,71,0.00,,,0.00,TxWx,2013-06-03 01:30:00,
2013-06-02 20:35:00,18.9,10.0,29.81,NNW,335,0.0,0.0,72,0.00,,,0.00,TxWx,2013-06-03 01:35:00,
2013-06-02 20:41:00,18.9,11.0,29.81,NNW,330,0.0,0.0,73,0.00,,,0.00,TxWx,2013-06-03 01:41:00,
2013-06-02 20:46:00,19.0,11.0,29.81,NNW,327,0.0,0.0,74,0.00,,,0.00,TxWx,2013-06-03 01:46:00,
2013-06-02 20:51:00,19.0,11.0,29.81,NW,320,0.0,0.0,74,0.00,,,0.00,TxWx,2013-06-03 01:51:00,
2013-06-02 20:56:00,18.9,11.0,29.81,NW,319,0.0,0.0,74,0.00,,,0.00,TxWx,2013-06-03 01:56:00,
2013-06-02 21:01:00,18.8,11.0,29.81,NNW,332,0.0,0.0,74,0.00,,,0.00,TxWx,2013-06-03 02:01:00,
2013-06-02 21:06:00,18.8,11.0,29.81,NNW,336,0.0,0.0,75,0.00,,,0.00,TxWx,2013-06-03 02:06:00,
2013-06-02 21:11:00,18.8,11.0,29.81,NNW,328,0.0,0.0,75,0.00,,,0.00,TxWx,2013-06-03 02:11:00,
2013-06-02 21:21:00,18.9,11.0,29.82,NNW,338,0.0,0.0,75,0.00,,,0.00,TxWx,2013-06-03 02:21:00,
2013-06-02 21:31:00,19.1,11.0,29.82,NNW,335,0.0,0.0,75,0.00,,,0.00,TxWx,2013-06-03 02:31:00,
2013-06-02 21:41:00,18.9,11.0,29.82,NW,326,0.0,0.0,75,0.00,,,0.00,TxWx,2013-06-03 02:41:00,
2013-06-02 21:46:00,18.9,11.0,29.83,NW,322,0.0,0.0,75,0.00,,,0.00,TxWx,2013-06-03 02:46:00,
2013-06-02 21:52:00,18.9,11.0,29.82,NW,316,0.0,0.0,75,0.00,,,0.00,TxWx,2013-06-03 02:52:00,
2013-06-02 22:01:00,19.2,12.0,29.83,NNW,335,0.0,0.0,76,0.00,,,0.00,TxWx,2013-06-03 03:01:00,
2013-06-02 22:06:00,19.0,12.0,29.83,NW,325,0.0,0.0,76,0.00,,,0.00,TxWx,2013-06-03 03:06:00,
2013-06-02 22:11:00,19.0,12.0,29.83,NNW,329,0.0,0.0,76,0.00,,,0.00,TxWx,2013-06-03 03:11:00,
2013-06-02 22:21:00,19.3,12.0,29.84,NW,320,0.0,0.0,77,0.00,,,0.00,TxWx,2013-06-03 03:21:00,
2013-06-02 22:26:00,19.3,12.0,29.84,NW,325,0.0,0.0,77,0.00,,,0.00,TxWx,2013-06-03 03:26:00,
2013-06-02 22:31:00,19.3,12.0,29.84,NNW,328,0.0,0.0,76,0.00,,,0.00,TxWx,2013-06-03 03:31:00,
2013-06-02 22:36:00,19.3,12.0,29.84,NW,324,0.0,0.0,76,0.00,,,0.00,TxWx,2013-06-03 03:36:00,
2013-06-02 22:46:00,19.3,12.0,29.84,NNW,338,0.0,0.0,77,0.00,,,0.00,TxWx,2013-06-03 03:46:00,
2013-06-02 22:51:00,19.2,12.0,29.84,NW,325,0.0,0.0,77,0.00,,,0.00,TxWx,2013-06-03 03:51:00,
2013-06-02 22:57:00,19.4,12.0,29.85,NNW,340,0.0,0.0,77,0.00,,,0.00,TxWx,2013-06-03 03:57:00,
2013-06-02 23:01:00,19.3,12.0,29.85,NNW,332,0.0,0.0,77,0.00,,,0.00,TxWx,2013-06-03 04:01:00,
2013-06-02 23:06:00,19.4,12.0,29.85,NW,325,0.0,0.0,77,0.00,,,0.00,TxWx,2013-06-03 04:06:00,
2013-06-02 23:11:00,19.2,12.0,29.85,NNW,336,0.0,0.0,78,0.00,,,0.00,TxWx,2013-06-03 04:11:00,
2013-06-02 23:21:00,19.4,12.0,29.85,NW,317,0.0,0.0,78,0.00,,,0.00,TxWx,2013-06-03 04:21:00,
2013-06-02 23:26:00,19.3,12.0,29.85,NW,322,0.0,0.0,79,0.00,,,0.00,TxWx,2013-06-03 04:26:00,
2013-06-02 23:31:00,19.4,12.0,29.85,NW,316,0.0,0.0,79,0.00,,,0.00,TxWx,2013-06-03 04:31:00,
2013-06-02 23:36:00,19.3,13.0,29.86,NW,314,0.0,0.0,79,0.00,,,0.00,TxWx,2013-06-03 04:36:00,
2013-06-02 23:47:00,19.3,13.0,29.86,NW,325,0.0,0.0,80,0.00,,,0.00,TxWx,2013-06-03 04:47:00,
2013-06-02 23:56:00,19.1,13.0,29.85,NNW,328,0.0,0.0,80,0.00,,,0.00,TxWx,2013-06-03 04:56:00,